Location: Newark
(35.8833°N, 14.5000°E)
Time: 22:47:59
(UTC+00:00)

UNISAT 6 - Pass Details

Date: 19 May 2019
Orbit: 606 x 690 km, 97.8° (Epoch: 19 June)

Event Time Altitude Azimuth Distance (km) Brightness Sun altitude
Rises 19:53:31 0° 13° (NNE) 2,943 ? -19.2°
Reaches altitude 10° 19:55:45 10° 15° (NNE) 2,017 ? -19.5°
Maximum altitude 20:00:08 76° 102° (ESE) 644 ? -20.1°
Enters shadow 20:01:28 43° 177° (S) 868 ? -20.3°
